When you browse on this site, cookies collect data to enhance your experience and personalize the content and advertising you see.
Visit our Privacy Policy to learn more. By continuing to use the site, you agree to this use of cookies and data.
  • In Hungary
  • List of Countries
  • For 7 days
  • Water Temperature
  • Weather Map
  • News
  • Weather Widgets
  • user-avatar
    Login

    Hourly Weather Ponomari

    Today, 23 January, Thursday

    Time Temperature Precipitation Wind Pressure Humidity
    00:00 -5°C° 0.1 mm 5 mps 734 mmHg 80%
    01:00 -5°C° 0.1 mm 6 mps 735 mmHg 79%
    02:00 -5°C° 0.1 mm 6 mps 735 mmHg 79%
    03:00 -6°C° 0 mm 6 mps 736 mmHg 75%
    04:00 -6°C° 0 mm 5 mps 736 mmHg 71%
    05:00 -7°C° 0 mm 5 mps 736 mmHg 67%
    06:00 -7°C° 0 mm 5 mps 737 mmHg 72%
    07:00 -6°C° 0 mm 5 mps 738 mmHg 76%
    08:00 -6°C° 0 mm 5 mps 738 mmHg 81%
    09:00 -6°C° 0 mm 5 mps 739 mmHg 72%
    10:00 -6°C° 0 mm 5 mps 739 mmHg 63%
    11:00 -6°C° 0 mm 5 mps 740 mmHg 54%
    12:00 -5°C° 0 mm 5 mps 740 mmHg 54%
    13:00 -5°C° 0 mm 6 mps 740 mmHg 54%
    14:00 -5°C° 0 mm 6 mps 740 mmHg 54%
    15:00 -5°C° 0 mm 5 mps 740 mmHg 58%
    16:00 -4°C° 0 mm 4 mps 741 mmHg 61%
    17:00 -5°C° 0 mm 4 mps 741 mmHg 65%
    18:00 -5°C° 0 mm 4 mps 741 mmHg 66%
    19:00 -5°C° 0 mm 3 mps 741 mmHg 68%
    20:00 -5°C° 0 mm 3 mps 741 mmHg 69%
    21:00 -5°C° 0 mm 3 mps 741 mmHg 74%
    22:00 -4°C° 0 mm 3 mps 741 mmHg 78%
    23:00 -4°C° 0 mm 3 mps 740 mmHg 83%

    Tomorrow, 24 January, Friday

    Time Temperature Precipitation Wind Pressure Humidity
    00:00 -4°C° 0 mm 3 mps 740 mmHg 85%
    01:00 -4°C° 0 mm 3 mps 740 mmHg 87%
    02:00 -4°C° 0 mm 4 mps 739 mmHg 89%
    03:00 -3°C° 0 mm 4 mps 738 mmHg 89%
    04:00 -3°C° 0 mm 4 mps 738 mmHg 89%
    05:00 -3°C° 0 mm 4 mps 737 mmHg 89%
    06:00 -4°C° 0.2 mm 5 mps 736 mmHg 91%
    07:00 -4°C° 0.2 mm 5 mps 736 mmHg 92%
    08:00 -4°C° 0.2 mm 5 mps 735 mmHg 94%
    09:00 -2°C° 0.2 mm 5 mps 734 mmHg 94%
    10:00 -1°C° 0.2 mm 5 mps 734 mmHg 94%
    11:00 0°C° 0.2 mm 5 mps 733 mmHg 94%
    12:00 +1°C° 0 mm 5 mps 733 mmHg 94%
    13:00 +1°C° 0 mm 5 mps 733 mmHg 93%
    14:00 +2°C° 0 mm 5 mps 732 mmHg 92%
    15:00 +2°C° 0 mm 5 mps 732 mmHg 90%
    16:00 +2°C° 0 mm 6 mps 732 mmHg 88%
    17:00 +2°C° 0 mm 6 mps 731 mmHg 87%
    18:00 +2°C° 0.1 mm 6 mps 732 mmHg 89%
    19:00 +2°C° 0.1 mm 5 mps 732 mmHg 91%
    20:00 +1°C° 0.1 mm 5 mps 732 mmHg 93%
    21:00 +1°C° 0.2 mm 5 mps 732 mmHg 92%
    22:00 +1°C° 0.2 mm 5 mps 732 mmHg 92%
    23:00 +1°C° 0.2 mm 5 mps 732 mmHg 91%

    Day after tomorrow, 25 January, Saturday

    Time Temperature Precipitation Wind Pressure Humidity
    00:00 +1°C° 0 mm 5 mps 732 mmHg 90%
    01:00 0°C° 0 mm 5 mps 732 mmHg 90%
    02:00 0°C° 0 mm 4 mps 732 mmHg 89%
    03:00 0°C° 0 mm 4 mps 731 mmHg 89%
    04:00 -1°C° 0 mm 4 mps 731 mmHg 89%
    05:00 -1°C° 0 mm 4 mps 731 mmHg 89%
    06:00 -1°C° 0 mm 4 mps 731 mmHg 89%
    07:00 -1°C° 0 mm 4 mps 731 mmHg 89%
    08:00 -1°C° 0 mm 4 mps 731 mmHg 89%
    09:00 -1°C° 0 mm 5 mps 731 mmHg 86%
    10:00 -1°C° 0 mm 5 mps 731 mmHg 83%
    11:00 -1°C° 0 mm 5 mps 731 mmHg 79%
    12:00 -2°C° 0 mm 6 mps 731 mmHg 77%
    13:00 -2°C° 0 mm 6 mps 731 mmHg 75%
    14:00 -2°C° 0 mm 6 mps 731 mmHg 73%
    15:00 -2°C° 0.1 mm 6 mps 731 mmHg 77%
    16:00 -3°C° 0.1 mm 6 mps 731 mmHg 81%
    17:00 -3°C° 0.1 mm 6 mps 731 mmHg 84%
    18:00 -3°C° 0.4 mm 6 mps 732 mmHg 84%
    19:00 -2°C° 0.4 mm 5 mps 733 mmHg 84%
    20:00 -2°C° 0.4 mm 5 mps 733 mmHg 84%
    21:00 -4°C° 0 mm 5 mps 734 mmHg 81%
    22:00 -3°C° 0 mm 4 mps 734 mmHg 79%
    23:00 -4°C° 0 mm 4 mps 735 mmHg 77%

    26 January, Sunday

    Time Temperature Precipitation Wind Pressure Humidity
    00:00 -4°C° 0 mm 4 mps 735 mmHg 78%
    01:00 -4°C° 0 mm 4 mps 736 mmHg 79%
    02:00 -4°C° 0 mm 4 mps 737 mmHg 80%
    03:00 -5°C° 0 mm 4 mps 737 mmHg 81%
    04:00 -5°C° 0 mm 4 mps 738 mmHg 82%
    05:00 -5°C° 0 mm 4 mps 738 mmHg 83%
    06:00 -5°C° 0 mm 3 mps 739 mmHg 84%
    07:00 -5°C° 0 mm 3 mps 740 mmHg 84%
    08:00 -5°C° 0 mm 3 mps 740 mmHg 84%
    09:00 -5°C° 0 mm 3 mps 741 mmHg 80%
    10:00 -3°C° 0 mm 2 mps 742 mmHg 76%
    11:00 -2°C° 0 mm 2 mps 742 mmHg 72%
    12:00 -2°C° 0 mm 2 mps 742 mmHg 71%
    13:00 -1°C° 0 mm 2 mps 743 mmHg 70%
    14:00 -1°C° 0 mm 2 mps 743 mmHg 69%
    15:00 -2°C° 0 mm 2 mps 743 mmHg 73%
    16:00 -2°C° 0 mm 2 mps 743 mmHg 77%
    17:00 -3°C° 0 mm 2 mps 743 mmHg 81%
    18:00 -3°C° 0 mm 2 mps 743 mmHg 83%
    19:00 -2°C° 0 mm 2 mps 743 mmHg 84%
    20:00 -2°C° 0 mm 2 mps 743 mmHg 85%
    21:00 -2°C° 0 mm 3 mps 743 mmHg 87%
    22:00 -2°C° 0 mm 3 mps 743 mmHg 90%
    23:00 -1°C° 0 mm 3 mps 743 mmHg 92%

    27 January, Monday

    Time Temperature Precipitation Wind Pressure Humidity
    00:00 -1°C° 0 mm 3 mps 743 mmHg 91%
    01:00 -1°C° 0 mm 3 mps 743 mmHg 90%
    02:00 -1°C° 0 mm 3 mps 742 mmHg 89%
    03:00 -1°C° 0 mm 3 mps 742 mmHg 89%
    04:00 -1°C° 0 mm 3 mps 742 mmHg 88%
    05:00 -1°C° 0 mm 3 mps 742 mmHg 88%
    06:00 -1°C° 0 mm 3 mps 742 mmHg 88%
    07:00 -1°C° 0 mm 3 mps 741 mmHg 88%
    08:00 -1°C° 0 mm 3 mps 741 mmHg 88%
    09:00 0°C° 0 mm 3 mps 741 mmHg 88%
    10:00 0°C° 0 mm 3 mps 741 mmHg 88%
    11:00 0°C° 0 mm 3 mps 741 mmHg 88%
    12:00 0°C° 0 mm 3 mps 740 mmHg 90%
    13:00 0°C° 0 mm 3 mps 740 mmHg 92%
    14:00 -1°C° 0 mm 4 mps 739 mmHg 93%
    15:00 0°C° 0.2 mm 3 mps 739 mmHg 94%
    16:00 -1°C° 0.2 mm 3 mps 739 mmHg 96%
    17:00 -1°C° 0.2 mm 3 mps 738 mmHg 97%
    18:00 -1°C° 0.3 mm 3 mps 738 mmHg 97%
    19:00 -1°C° 0.3 mm 3 mps 737 mmHg 97%
    20:00 0°C° 0.3 mm 3 mps 737 mmHg 97%
    21:00 -1°C° 0.2 mm 3 mps 736 mmHg 97%
    22:00 -1°C° 0.2 mm 3 mps 736 mmHg 97%
    23:00 -2°C° 0.2 mm 4 mps 736 mmHg 97%

    28 January, Tuesday

    Time Temperature Precipitation Wind Pressure Humidity
    00:00 -1°C° 0.1 mm 3 mps 735 mmHg 96%
    01:00 0°C° 0.1 mm 3 mps 735 mmHg 94%
    02:00 0°C° 0.1 mm 3 mps 735 mmHg 93%
    03:00 0°C° 0.3 mm 3 mps 734 mmHg 95%
    04:00 0°C° 0.3 mm 3 mps 734 mmHg 96%
    05:00 0°C° 0.3 mm 3 mps 734 mmHg 97%
    06:00 -1°C° 0.3 mm 4 mps 734 mmHg 95%
    07:00 -1°C° 0.3 mm 4 mps 735 mmHg 92%
    08:00 -1°C° 0.3 mm 4 mps 735 mmHg 90%
    09:00 -1°C° 0 mm 4 mps 735 mmHg 88%
    10:00 -1°C° 0 mm 4 mps 736 mmHg 86%
    11:00 -1°C° 0 mm 4 mps 736 mmHg 85%
    12:00 0°C° 0 mm 3 mps 736 mmHg 84%
    13:00 0°C° 0 mm 3 mps 737 mmHg 84%
    14:00 +1°C° 0 mm 2 mps 737 mmHg 84%
    15:00 -1°C° 0 mm 2 mps 737 mmHg 87%
    16:00 -2°C° 0 mm 2 mps 737 mmHg 90%
    17:00 -2°C° 0 mm 2 mps 738 mmHg 93%
    18:00 -2°C° 0 mm 2 mps 737 mmHg 92%
    19:00 -2°C° 0 mm 2 mps 737 mmHg 92%
    20:00 -2°C° 0 mm 3 mps 737 mmHg 92%
    21:00 -2°C° 0 mm 3 mps 737 mmHg 89%
    22:00 -2°C° 0 mm 4 mps 736 mmHg 87%
    23:00 -1°C° 0 mm 4 mps 736 mmHg 85%
    Show more